Rochester, Indiana, United States (46975)
Lat: 41.06N, Lon: 86.22W
Wx Zone: INZ015
Local Info
Past Weather Observations for Today

NOTE: This archive is for the closest National Weather Service station to Rochester. Information may differ from the station used for current weather conditions.

Click here for Long-term Archive

Time Weather Temperature Dewpoint Humidity Pressure Winds Precip Visibility
17:55
Clear
70°F / 21°C 64°F / 18°C 83% 30.04 in
(1017 mb)
Calm - 10SM
17:35
Partly Cloudy
Light Rain
70°F / 21°C 64°F / 18°C 83% 30.04 in
(1017 mb)
Calm - 10SM
17:15
Mostly Cloudy
70°F / 21°C 63°F / 17°C 78% 30.04 in
(1017 mb)
Calm - 10SM
16:55
Partly Cloudy
70°F / 21°C 63°F / 17°C 78% 30.06 in
(1018 mb)
S 3.5 mph
(S 6 kph)
- 10SM
16:35
Partly Cloudy
Drizzle
70°F / 21°C 63°F / 17°C 78% 30.06 in
(1018 mb)
Calm - 10SM
16:15
Mostly Cloudy
Light Rain
70°F / 21°C 63°F / 17°C 78% 30.06 in
(1018 mb)
SSE 3.5 mph
(SSE 6 kph)
- 10SM
15:55
Mostly Cloudy
Light Rain
72°F / 22°C 63°F / 17°C 73% 30.06 in
(1018 mb)
SSE 4.6 mph
(SSE 7 kph)
- 10SM
15:35
Overcast
Light Rain
75°F / 24°C 70°F / 21°C 83% 30.04 in
(1017 mb)
SSW 11.5 mph
(SSW 19 kph)
- 10SM
15:15
Mostly Cloudy
73°F / 23°C 70°F / 21°C 89% 30.04 in
(1017 mb)
Calm - 10SM
14:55
Partly Cloudy
Light Rain
73°F / 23°C 70°F / 21°C 89% 30.01 in
(1016 mb)
NE 3.5 mph
(NE 6 kph)
- 10SM
14:35
Partly Cloudy
Light Rain
73°F / 23°C 70°F / 21°C 89% 30.01 in
(1016 mb)
NW 9.2 mph
(NW 15 kph)
- 10SM
14:15
Mostly Cloudy
Rain
82°F / 28°C 72°F / 22°C 70% 30.01 in
(1016 mb)
NNW 15 mph
(NNW 24 kph)
- 10SM
13:55
Mostly Cloudy
84°F / 29°C 73°F / 23°C 70% 30.01 in
(1016 mb)
N 3.5 mph
(N 6 kph)
0.02 in
(0.51 mm)
10SM
13:35
Mostly Cloudy
Light Rain
82°F / 28°C 73°F / 23°C 74% 30.04 in
(1017 mb)
NW 4.6 mph
(NW 7 kph)
0.02 in
(0.51 mm)
5SM
13:15
Partly Cloudy
86°F / 30°C 72°F / 22°C 62% 30.04 in
(1017 mb)
W 6.9 mph
(W 11 kph)
- 10SM
12:55
Partly Cloudy
86°F / 30°C 72°F / 22°C 62% 30.04 in
(1017 mb)
WNW 5.8 mph
(WNW 9 kph)
- 10SM
12:35
Clear
82°F / 28°C 72°F / 22°C 70% 30.04 in
(1017 mb)
W 4.6 mph
(W 7 kph)
- 10SM
12:15
Clear
82°F / 28°C 72°F / 22°C 70% 30.04 in
(1017 mb)
W 5.8 mph
(W 9 kph)
- 10SM
11:55
Partly Cloudy
81°F / 27°C 72°F / 22°C 74% 30.04 in
(1017 mb)
SSW 4.6 mph
(SSW 7 kph)
- 10SM
11:35
Overcast
79°F / 26°C 70°F / 21°C 74% 30.04 in
(1017 mb)
SSW 4.6 mph
(SSW 7 kph)
- 10SM
11:15
Overcast
79°F / 26°C 70°F / 21°C 74% 30.04 in
(1017 mb)
W 3.5 mph
(W 6 kph)
- 10SM
10:55
Mostly Cloudy
79°F / 26°C 70°F / 21°C 74% 30.04 in
(1017 mb)
WNW 4.6 mph
(WNW 7 kph)
- 10SM
10:35
Mostly Cloudy
79°F / 26°C 70°F / 21°C 74% 30.04 in
(1017 mb)
W 5.8 mph
(W 9 kph)
- 10SM
10:15
Mostly Cloudy
77°F / 25°C 68°F / 20°C 74% 30.04 in
(1017 mb)
W 6.9 mph
(W 11 kph)
- 10SM
09:55
Partly Cloudy
77°F / 25°C 68°F / 20°C 74% 30.04 in
(1017 mb)
Calm - 10SM
09:35
Partly Cloudy
75°F / 24°C 68°F / 20°C 78% 30.04 in
(1017 mb)
Calm - 10SM
09:15
Partly Cloudy
73°F / 23°C 68°F / 20°C 83% 30.04 in
(1017 mb)
Calm - 10SM
08:55
Partly Cloudy
72°F / 22°C 68°F / 20°C 88% 30.04 in
(1017 mb)
NW 3.5 mph
(NW 6 kph)
- 10SM
08:35
Clear
72°F / 22°C 68°F / 20°C 88% 30.04 in
(1017 mb)
Calm - 7SM
08:15
Clear
Fog And Mist
70°F / 21°C 68°F / 20°C 94% 30.04 in
(1017 mb)
Calm - 5SM
07:55
Clear
Fog And Mist
70°F / 21°C 68°F / 20°C 94% 30.04 in
(1017 mb)
Calm - 3SM
07:35
Clear
Fog And Mist
68°F / 20°C 68°F / 20°C 100% 30.04 in
(1017 mb)
Calm - 2 1/2SM
07:15
Clear
Fog And Mist
68°F / 20°C 68°F / 20°C 100% 30.04 in
(1017 mb)
Calm - 2SM
06:55
Clear
Fog And Mist
66°F / 19°C 66°F / 19°C 100% 30.01 in
(1016 mb)
Calm - 2SM
06:35
Obscured
Fog And Mist
64°F / 18°C 64°F / 18°C 100% 30.01 in
(1016 mb)
Calm - 1 1/2SM
06:15
Clear
Fog And Mist
64°F / 18°C 64°F / 18°C 100% 30.01 in
(1016 mb)
Calm - 2SM
05:55
Partly Cloudy
Fog And Mist
64°F / 18°C 64°F / 18°C 100% 30.01 in
(1016 mb)
Calm - 1 1/4SM
05:35
Clear
Fog And Mist
66°F / 19°C 66°F / 19°C 100% 30.01 in
(1016 mb)
Calm - 2SM
05:15
Clear
Fog And Mist
68°F / 20°C 66°F / 19°C 94% 30.01 in
(1016 mb)
Calm - 3SM
04:55
Clear
Fog And Mist
68°F / 20°C 66°F / 19°C 94% 29.98 in
(1015 mb)
Calm - 4SM
04:35
Clear
Fog And Mist
68°F / 20°C 68°F / 20°C 100% 29.98 in
(1015 mb)
Calm - 4SM
04:15
Clear
Fog And Mist
68°F / 20°C 68°F / 20°C 100% 29.98 in
(1015 mb)
Calm - 4SM
03:55
Clear
Fog And Mist
68°F / 20°C 68°F / 20°C 100% 29.98 in
(1015 mb)
Calm - 4SM
03:35
Clear
Fog And Mist
68°F / 20°C 68°F / 20°C 100% 29.98 in
(1015 mb)
Calm - 3SM
03:15
Clear
Fog And Mist
68°F / 20°C 68°F / 20°C 100% 29.98 in
(1015 mb)
Calm - 4SM
02:55
Clear
Fog And Mist
70°F / 21°C 68°F / 20°C 94% 29.98 in
(1015 mb)
Calm - 5SM
02:35
Clear
70°F / 21°C 68°F / 20°C 94% 29.95 in
(1014 mb)
Calm - 7SM
02:15
Clear
70°F / 21°C 68°F / 20°C 94% 29.95 in
(1014 mb)
Calm - 7SM
01:55
Clear
70°F / 21°C 68°F / 20°C 94% 29.95 in
(1014 mb)
Calm - 10SM
01:35
Clear
70°F / 21°C 68°F / 20°C 94% 29.98 in
(1015 mb)
WNW 4.6 mph
(WNW 7 kph)
- 10SM
01:15
Clear
72°F / 22°C 68°F / 20°C 88% 29.95 in
(1014 mb)
SSW 3.5 mph
(SSW 6 kph)
- 10SM
00:55
Partly Cloudy
72°F / 22°C 68°F / 20°C 88% 29.95 in
(1014 mb)
SSW 4.6 mph
(SSW 7 kph)
- 10SM
00:35
Overcast
72°F / 22°C 68°F / 20°C 88% 29.95 in
(1014 mb)
SSW 3.5 mph
(SSW 6 kph)
- 10SM
00:15
Partly Cloudy
72°F / 22°C 68°F / 20°C 88% 29.95 in
(1014 mb)
SSW 3.5 mph
(SSW 6 kph)
- 10SM
Time Weather Temperature Dewpoint Humidity Pressure Winds Precip Visibility


Weather for websites

WeatherForYou.com, LLC is not responsible for any damages or problems caused by this service. Current weather conditions are obtained from the closest station including government and personal stations which may have varying degrees of accuracy. Weather forecasts are derived from the NOAA NDFD. Like all things, this site belongs to Jesus Christ... He just trusts us to maintain it. If you have any questions or comments email webmaster@weatherforyou.com

Copyright © 2015, WeatherForYou.com LLC. All rights reserved.